Location: Sternwarte_Laufen
(47.9344°N, 12.9346°E)
Time: 07:58:36
(UTC+01:00)

BlueWalker 3 - Pass Details

Date: 07 February 2023
Orbit: 497 x 515 km, 53.2° (Epoch: 23 March)

Event Time Altitude Azimuth Distance (km) Brightness Sun altitude
Rises 19:55:25 0° 297° (WNW) 2,609 6.7 -26.7°
Reaches altitude 10° 19:57:37 10° 294° (WNW) 1,725 5.6 -27.1°
Enters shadow 20:00:05 36° 279° (W) 819 3.4 -27.5°
